This demonstration page uses our WeatherBlox Daily Observations layout. Learn more.

Left ArrowRight Arrow

41.86663, -103.66717

Hourly Observations for November 15, 2020

Temp ( °F °C ) Dew Point ( °F °C ) Humidity (%) Winds ( mph kmh ) Pressure ( in mb ) Visibility ( mi km ) Precip ( " mm )
12:53 am 00:53 Clear 25 -3.9 14 -10 63 63 WNW 8 13 30.11 1020 10 16 0.00 0.00
1:53 am 01:53 Clear 30 -1.1 15 -9.4 54 54 W 15 24 30.08 1019 10 16 0.00 0.00
2:53 am 02:53 Clear 30 -1.1 15 -9.4 54 54 WNW 16 26 30.10 1019 10 16 0.00 0.00
3:53 am 03:53 Clear 30 -1.1 16 -8.9 56 56 WNW 16 26 30.08 1019 10 16 0.00 0.00
4:53 am 04:53 Clear 28 -2.2 16 -8.9 60 60 NW 8 13 30.09 1019 10 16 0.00 0.00
5:53 am 05:53 Clear 24 -4.4 16 -8.9 71 71 NNW 8 13 30.09 1019 10 16 0.00 0.00
6:53 am 06:53 Sunny 22 -5.6 15 -9.4 75 75 Calm 30.10 1019 10 16 0.00 0.00
7:53 am 07:53 Sunny 28 -2.2 18 -7.8 66 66 Calm 30.10 1019 10 16 0.00 0.00
8:53 am 08:53 Sunny 32 0 21 -6.1 64 64 SE 7 11 30.11 1020 10 16 0.00 0.00
9:53 am 09:53 Sunny 36 2.2 21 -6.1 55 55 ESE 12 19 30.11 1020 10 16 0.00 0.00
10:53 am 10:53 Sunny 42 5.6 20 -6.7 41 41 Calm 30.08 1019 10 16 0.00 0.00
11:53 am 11:53 Sunny 51 10.6 22 -5.6 32 32 W 25 41 30.02 1017 10 16 0.00 0.00
12:53 pm 12:53 Sunny 52 11.1 23 -5 32 32 W 21 33 30.01 1016 10 16 0.00 0.00
1:53 pm 13:53 Sunny 55 12.8 23 -5 29 29 WNW 21 33 29.98 1015 10 16 0.00 0.00
2:53 pm 14:53 Sunny 53 11.7 24 -4.4 32 32 W 20 31 29.99 1016 10 16 0.00 0.00
3:53 pm 15:53 Sunny 52 11.1 25 -3.9 35 35 W 15 24 30.01 1016 10 16 0.00 0.00
4:53 pm 16:53 Clear 49 9.4 25 -3.9 39 39 W 12 19 30.02 1017 10 16 0.00 0.00
5:53 pm 17:53 Clear 49 9.4 26 -3.3 41 41 W 17 28 30.04 1017 10 16 0.00 0.00
6:53 pm 18:53 Clear 50 10 28 -2.2 43 43 W 16 26 30.05 1018 10 16 0.00 0.00
7:53 pm 19:53 Clear 51 10.6 29 -1.7 43 43 W 22 35 30.04 1017 10 16 0.00 0.00
8:53 pm 20:53 Mostly Clear 51 10.6 30 -1.1 44 44 W 23 37 30.04 1017 10 16 0.00 0.00
9:53 pm 21:53 Clear 51 10.6 30 -1.1 44 44 W 22 35 30.05 1018 10 16 0.00 0.00
10:53 pm 22:53 Clear 51 10.6 30 -1.1 44 44 W 24 39 30.05 1018 10 16 0.00 0.00
11:53 pm 23:53 Clear 50 10 31 -0.6 48 48 W 18 30 30.05 1018 10 16 0.00 0.00

Powered by AerisWeather